This is the latest recevied weather packets stored in our database for station/object N9BLE. If no packets are shown the sender has not sent any weather packets the latest 10 day(s).
| Time | Temp. | Humidity | Pressure | Rain* | Wind** | Luminosity | Snow |
|---|---|---|---|---|---|---|---|
| 1777484341 | 12.22° C | 64% | 1017.9 hPa | 0 mm | - | 295 W/m² | - |
| 1777484036 | 12.22° C | 65% | 1017.9 hPa | 0 mm | - | 188 W/m² | - |
| 1777483734 | 12.22° C | 66% | 1017.9 hPa | 0 mm | - | 198 W/m² | - |
| 1777483429 | 12.78° C | 64% | 1017.9 hPa | 0 mm | - | 238 W/m² | - |
| 1777483125 | 12.22° C | 69% | 1018 hPa | 0 mm | - | 249 W/m² | - |
| 1777482822 | 11.67° C | 67% | 1017.9 hPa | 0 mm | - | 232 W/m² | - |
| 1777482518 | 12.22° C | 66% | 1018.1 hPa | 0 mm | - | 178 W/m² | - |
| 1777482216 | 12.22° C | 68% | 1017.7 hPa | 0 mm | - | 196 W/m² | - |
| 1777481912 | 12.22° C | 67% | 1018 hPa | 0 mm | - | 249 W/m² | - |
| 1777481610 | 12.22° C | 66% | 1018.2 hPa | 0 mm | - | 250 W/m² | - |
| 1777481307 | 12.78° C | 66% | 1018.3 hPa | 0 mm | - | 201 W/m² | - |
| 1777481003 | 12.78° C | 65% | 1018.1 hPa | 0 mm | - | 199 W/m² | - |
| 1777480700 | 12.22° C | 66% | 1018 hPa | 0 mm | - | 222 W/m² | - |
| 1777480397 | 12.78° C | 68% | 1018.3 hPa | 0 mm | - | 239 W/m² | - |
| 1777480092 | 12.22° C | 68% | 1018.1 hPa | 0 mm | - | 268 W/m² | - |
| 1777479789 | 12.78° C | 66% | 1018.2 hPa | 0 mm | - | 170 W/m² | - |
| 1777479487 | 12.78° C | 67% | 1018.1 hPa | 0 mm | - | 228 W/m² | - |
| 1777479183 | 12.22° C | 69% | 1018.1 hPa | 0 mm | - | 169 W/m² | - |
| 1777478880 | 12.22° C | 67% | 1018 hPa | 0 mm | - | 245 W/m² | - |
| 1777478576 | 12.78° C | 67% | 1018.1 hPa | 0 mm | - | 273 W/m² | - |
| 1777478274 | 12.78° C | 65% | 1018 hPa | 0 mm | - | 237 W/m² | - |
| 1777477970 | 12.78° C | 67% | 1017.9 hPa | 0 mm | - | 281 W/m² | - |
| 1777477665 | 12.78° C | 68% | 1017.9 hPa | 0 mm | - | 249 W/m² | - |
| 1777477363 | 12.78° C | 65% | 1017.9 hPa | 0 mm | - | 243 W/m² | - |
| 1777477059 | 12.78° C | 67% | 1017.9 hPa | 0 mm | - | 186 W/m² | - |
* Rain latest hour (hover to see other rain measurements)
** Current wind speed in m/s (hover to see current wind gust speed)